THORAD AGENA D DEB

Satellite information

Favourite Embed

Satellite Type and Status

DEBRISIN ORBIT

Key statistics

Satellite THORAD AGENA D DEB at a glance.

Uptime

20179

Days in orbit

Revolutions

≈ 14.2

Per day

Orbit

SSO

Sun Synchronous Orbit

Inclination

99.9

Latest

Satellite identification and parameters

Extended collection of information and parameters for THORAD AGENA D DEB.

Object identification

Identified? True

Debris? True

Object name: THORAD AGENA D DEB

International designator: 1970-025MX

Object number (NORAD): 6157

Object ID (CCSDS): 6157

Country: UNITED STATES OF AMERICA (US)

Current information (Y/N): Y

RCS size: SMALL

Orbital parameters

Period: 101.488 minutes

Inclination: 99.8792 deg

SMA: 7207.274 km

Apoapsis: 836.104 km

Periapsis: 822.174 km

RAAN: 326.8099 deg

Eccentricy: 0.0009664

Argument of periapsis: 247.1922 deg

Mean anomaly: 112.8229 deg

Mean motion: 14.18881864 rev/day

Mean motion (dot): 0.00002295 rev/day2

B* drag term: 0.0011269 1/REarth

Two-line elements (TLE)

Creation date: July 6, 2025, 6:05 p.m.

Reference frame: TEME

Reference center: EARTH

Epoch: July 6, 2025, 7:38 a.m. UTC

TLE line 0: 0 THORAD AGENA D DEB

TLE line 1: 1 06157U 70025MX 25187.31826384 .00002295 00000-0 11269-2 0 9990

TLE line 2: 2 06157 99.8792 326.8099 0009664 247.1922 112.8229 14.18881864796820

Live tracking on map

Real-time ground track for satellite THORAD AGENA D DEB.

In-orbit conjunctions

A list of the most updated potential collisions computed for object THORAD AGENA D DEB.

Target Orbit TCA Probability of collision Miss distance Type
METEOR 2-3 LEO 2024-08-03 07:41:58 0.0001990933 912.0 (m) PAYLOAD
SCOUT X-4 R/B SSO 2024-07-27 11:01:25 0.0001688984 432.0 (m) ROCKET BODY
METEOR 2-7 LEO 2024-06-28 01:33:14 0.0001082744 849.0 (m) PAYLOAD

Associated space launch

Meteorological research and development satellite

THORAD AGENA D DEB was lifted into orbit during the mission ‘Thorad SLV-2G Agena D | Nimbus 4’, on board a Thorad SLV-2G Agena D space rocket.

The launch took place on April 8, 1970, 8:17 a.m. from Space Launch Complex 2E.

For more information about the launch, click the button.

Launch to space Thorad SLV-2G Agena D | Nimbus 4
Thorad SLV-2G Agena D | Nimbus 4

Agency: N/A

Status: Launch Successful

Launch date: April 8, 1970, 8:17 a.m. UTC

Rocket: Thorad SLV-2G Agena D

Launch pad: Space Launch Complex 2E

Location: Vandenberg SFB, CA, USA

...

Latest news about this satellite

There are no fresh news available about this satellite. Check back as we update our databases every day.


Newsletter sign-up

Weekly statistics, charts and insights to help you stay on top of the space industry.